Regional Weather Roundup
Issued by NWS Northern Indiana

Home | Current Version | Previous Version | Graphics & Text | Print | Product List | Glossary On
Versions: 1 2 3 4 5 6 7 8 9 10 11 12 13 14 15 16 17 18 19 20 21 22 23 24 25 26 27 28 29 30 31 32 33 34 35 36 37 38 39 40 41 42 43 44 45 46 47 48 49 50
000
ASUS43 KIWX 230200
RWRIWX

KIWX WEATHER ROUNDUP
NATIONAL WEATHER SERVICE NORTHERN INDIANA
1000 PM EDT FRI MAY 22 2015

NOTE: "FAIR" INDICATES FEW OR NO CLOUDS BELOW 12,000 FEET WITH NO
SIGNIFICANT WEATHER AND/OR OBSTRUCTIONS TO VISIBILITY.

* THESE STATIONS ARE NOT UNDER NWS QUALITY CONTROL. THEY ALSO MAY NOT
  REPORT WEATHER SUCH AS PRECIPITATION OR FOG.

INZ001>027-230300-
NORTHERN INDIANA

CITY           SKY/WX    TMP DP  RH WIND       PRES   REMARKS
GARY*          MOCLDY    55  41  58 E7        30.27S
SOUTH BEND     MOCLDY    57  33  40 NE7       30.30S
GOSHEN         MOCLDY    56  35  45 N7        30.29R
WARSAW*        CLOUDY    57  34  41 N6        30.28R
ANGOLA*        CLEAR     57  34  41 N3        30.28S
FORT WAYNE     CLOUDY    59  40  49 N6        30.28R

$$
INZ028>050-230300-
CENTRAL INDIANA

CITY           SKY/WX    TMP DP  RH WIND       PRES   REMARKS
LAFAYETTE      MOCLDY    61  36  39 NE7       30.24R
KOKOMO*        PTCLDY    63  37  39 NE9       30.26R
MUNCIE*        PTCLDY    61  42  49 NE3       30.26R
INDIANAPOLIS   PTCLDY    66  45  46 CALM      30.24R

$$
MIZ043>046-050>051-056>058-064>065-071>073-077>080-230300-
SOUTHWEST LOWER MICHIGAN

CITY           SKY/WX    TMP DP  RH WIND       PRES   REMARKS
BATTLE CREEK   PTCLDY    54  32  43 W7        30.31R
BENTON HARBOR  MOCLDY    47  36  65 CALM      30.30R
COLDWATER*     PTCLDY    54  31  42 N5        30.29R
HILLSDALE*     PTCLDY    54  33  44 W6        30.29R
HOLLAND        MOCLDY    49  38  65 SW3       30.31R
GRAND RAPIDS   MOCLDY    56  25  30 W6        30.30R
KALAMAZOO      PTCLDY    54  30  40 N6        30.30R
STURGIS*       PTCLDY    55  30  38 NW5       30.29R
THREE RIVERS*  FAIR      53  35  49 CALM      30.30R

$$
OHZ001>008-015>018-024>025-230300-
NORTHWEST OHIO

CITY           SKY/WX    TMP DP  RH WIND       PRES   REMARKS
DEFIANCE       PTCLDY    56  41  57 CALM      30.26R
FINDLAY        PTCLDY    60  34  37 E8        30.26R
TOLEDO EXPRESS PTCLDY    53  35  50 CALM      30.26R
TOLEDO METCALF PTCLDY    54  38  54 SE7       30.28R
LIMA           MOCLDY    59  36  42 NE5       30.26R

$$
AND FOR LAKE MICHIGAN COASTAL AND OPEN LAKE BUOY OBSERVATIONS

STATION/POSITION TEMP    WIND        PRES    VSBY  WAVE
                 AIR SEA DIR/SP/G                  HT/PER
                 (F)     (DEG/KT/KT) (MB)    (MI)  (FT/S)
CALUMET HARBOR    52      70/  8/ 10   N/A
MICHIGAN CITY     54      40/ 11/ 12   N/A
BURNS HARBOR      54      70/  4/  7 1025.4S
SAINT JOSEPH      55      10/  3/  4 1025.7S
SOUTH LAKE BUOY   44 38   80/  8/  8 1026.3F         0
4 MI NW BRIDGMAN  55 54   80/  8/ 10   N/A           1/ 4
MICHIGAN CITY     53 51   80/  8/ 10   N/A           2/ 3

$$
&&



USA.gov is the U.S. government's official web portal to all federal, state and local government web resources and services.